Weather History for Edinburg, TX

Change the Weather History Date:

Thursday, November 24, 2011

  Actual Average (KMFE) Record (KMFE)
Temperature  
Mean Temperature 66 °F 67 °F  
Max Temperature 82 °F 77 °F 91 °F (1982)
Min Temperature 50 °F 56 °F 33 °F (1894)
Degree Days  
Heating Degree Days 0 3  
Month to date heating degree days 37  
Since 1 July heating degree days 42  
Cooling Degree Days 1 5  
Month to date cooling degree days 163  
Year to date cooling degree days 4345  
Growing Degree Days 16 (Base 50)    
Moisture  
Dew Point 52 °F    
Average Humidity 70    
Maximum Humidity 95    
Minimum Humidity 30    
Precipitation  
Precipitation 0.00 in 0.02 in 0.58 in (1972)
Month to date precipitation 0.73  
Year to date precipitation 20.85  
Sea Level Pressure  
Sea Level Pressure 30.20 in    
Wind  
Wind Speed 3 mph (East)    
Max Wind Speed 15 mph    
Max Gust Speed 16 mph    
Visibility 8 miles    
Events Fog    
T = Trace of Precipitation, MM = Missing Value Source: NWS Daily Summary

Daily Weather History Graph

Daily Weather History Graph

Search for Another Location

Airport:

Trip Planner

Search our weather history database for the weather conditions in past years. The results will help you decide how hot, cold, wet, or windy it might be!

Date:

Astronomy

Nov. 24, 2011 Rise Set
Actual Time 6:58 AM CST 5:40 PM CST
Civil Twilight 6:33 AM CST 6:04 PM CST
Nautical Twilight 6:04 AM CST 6:33 PM CST
Astronomical Twilight 5:37 AM CST 7:01 PM CST
Moon 6:15 AM CST (11/24) 5:15 PM CST (11/24)
Length of Visible Light 11h 31m
Length of Day
10h 42m
Waning Crescent, 0% of the Moon is Illuminated
Nov 24
Waning Crescent
Nov 25
New
Dec 2
First Quarter
Dec 10
Full
Dec 17
Last Quarter

Hourly Weather History & Observations

Time (CST) Temp. Dew Point Humidity Pressure Visibility Wind Dir Wind Speed Gust Speed Precip Events Conditions
12:15 AM 55.8 °F 51.8 °F 87% 30.25 in 7.0 mi Calm Calm - N/A   Clear
12:35 AM 54.3 °F 50.0 °F 85% 30.25 in 10.0 mi Calm Calm - N/A   Clear
12:55 AM 53.8 °F 50.0 °F 87% 30.24 in 7.0 mi Calm Calm - N/A   Clear
1:15 AM 53.1 °F 49.6 °F 88% 30.24 in 7.0 mi NW 3.5 mph - N/A   Clear
1:35 AM 52.3 °F 49.1 °F 89% 30.24 in 5.0 mi NW 3.5 mph - N/A   Clear
1:55 AM 52.2 °F 49.3 °F 90% 30.23 in 2.5 mi Calm Calm - N/A   Clear
2:15 AM 52.2 °F 49.3 °F 90% 30.23 in 7.0 mi Calm Calm - N/A   Clear
2:35 AM 52.3 °F 49.5 °F 90% 30.23 in 7.0 mi WNW 3.5 mph - N/A   Clear
3:35 AM 50.9 °F 48.4 °F 91% 30.23 in 0.2 mi NW 3.5 mph - N/A Fog Fog
3:55 AM 50.4 °F 48.2 °F 92% 30.22 in 0.2 mi Calm Calm - N/A Fog Fog
4:15 AM 50.4 °F 48.4 °F 93% 30.22 in 0.2 mi Calm Calm - N/A Fog Fog
4:35 AM 50.7 °F 48.9 °F 94% 30.22 in 0.2 mi Calm Calm - N/A Fog Fog
4:55 AM 51.1 °F 49.3 °F 94% 30.21 in 0.2 mi Calm Calm - N/A Fog Fog
5:15 AM 51.3 °F 49.5 °F 94% 30.21 in 0.2 mi Calm Calm - N/A Fog Fog
5:55 AM 50.5 °F 48.7 °F 94% 30.22 in 0.8 mi Calm Calm - N/A   Overcast
6:15 AM 50.7 °F 48.9 °F 94% 30.22 in 0.8 mi NNW 3.5 mph - N/A   Overcast
6:55 AM 51.3 °F 49.8 °F 95% 30.23 in 0.5 mi Calm Calm - N/A Fog Fog
7:15 AM 51.6 °F 50.0 °F 94% 30.24 in 1.2 mi North 3.5 mph - N/A   Overcast
7:35 AM 51.8 °F 50.2 °F 94% 30.24 in 3.0 mi NNW 4.6 mph - N/A   Overcast
7:55 AM 53.1 °F 51.4 °F 94% 30.25 in 4.0 mi North 4.6 mph - N/A   Overcast
8:15 AM 54.3 °F 52.7 °F 94% 30.27 in 5.0 mi North 4.6 mph - N/A   Overcast
8:35 AM 55.9 °F 54.1 °F 94% 30.28 in 7.0 mi North 4.6 mph - N/A   Overcast
8:55 AM 57.2 °F 55.2 °F 93% 30.28 in 7.0 mi NNE 3.5 mph - N/A   Mostly Cloudy
9:15 AM 58.8 °F 56.5 °F 92% 30.28 in 10.0 mi NE 4.6 mph - N/A   Mostly Cloudy
9:35 AM 60.8 °F 57.7 °F 90% 30.28 in 10.0 mi Calm Calm - N/A   Mostly Cloudy
9:55 AM 65.8 °F 58.3 °F 77% 30.27 in 10.0 mi ENE 4.6 mph - N/A   Scattered Clouds
10:35 AM 72.3 °F 57.9 °F 60% 30.26 in 10.0 mi Calm Calm - N/A   Clear
10:55 AM 73.9 °F 57.4 °F 56% 30.26 in 10.0 mi SE 3.5 mph - N/A   Clear
11:15 AM 75.6 °F 56.5 °F 51% 30.24 in 10.0 mi ESE 10.4 mph 16.1 mph N/A   Clear
11:35 AM 76.5 °F 56.1 °F 49% 30.24 in 10.0 mi SE 9.2 mph 16.1 mph N/A   Clear
11:55 AM 77.4 °F 55.8 °F 47% 30.23 in 10.0 mi ESE 10.4 mph - N/A   Scattered Clouds
12:35 PM 78.6 °F 54.7 °F 43% 30.21 in 10.0 mi Calm Calm - N/A   Clear
12:55 PM 78.8 °F 55.0 °F 44% 30.19 in 10.0 mi Calm Calm - N/A   Clear
1:15 PM 79.7 °F 53.8 °F 41% 30.18 in 10.0 mi ESE 8.1 mph - N/A   Clear
1:55 PM 81.1 °F 51.1 °F 35% 30.16 in 10.0 mi ESE 9.2 mph - N/A   Clear
2:15 PM 81.9 °F 49.5 °F 32% 30.15 in 10.0 mi East 10.4 mph - N/A   Clear
2:35 PM 82.4 °F 48.0 °F 30% 30.15 in 10.0 mi ESE 8.1 mph - N/A   Clear
2:55 PM 82.4 °F 49.5 °F 32% 30.13 in 10.0 mi SSE 9.2 mph - N/A   Clear
3:55 PM 82.6 °F 50.2 °F 32% 30.12 in 10.0 mi East 12.7 mph - N/A   Clear
4:15 PM 82.0 °F 51.1 °F 34% 30.13 in 10.0 mi East 12.7 mph - N/A   Clear
4:35 PM 81.1 °F 51.6 °F 36% 30.13 in 10.0 mi ESE 13.8 mph - N/A   Clear
4:55 PM 80.1 °F 52.2 °F 38% 30.13 in 10.0 mi ESE 11.5 mph - N/A   Clear
5:15 PM 79.2 °F 52.5 °F 39% 30.13 in 10.0 mi ESE 15.0 mph - N/A   Clear
5:35 PM 77.7 °F 52.9 °F 42% 30.13 in 10.0 mi ESE 12.7 mph - N/A   Clear
5:55 PM 75.7 °F 53.4 °F 46% 30.13 in 10.0 mi East 13.8 mph - N/A   Clear
6:15 PM 74.3 °F 54.1 °F 49% 30.14 in 10.0 mi East 11.5 mph - N/A   Clear
6:55 PM 72.3 °F 55.4 °F 55% 30.15 in 10.0 mi ESE 11.5 mph - N/A   Clear
7:35 PM 70.9 °F 55.9 °F 59% 30.16 in 10.0 mi ESE 10.4 mph - N/A   Clear
8:15 PM 68.5 °F 55.6 °F 63% 30.17 in 10.0 mi ESE 6.9 mph - N/A   Clear
8:35 PM 67.5 °F 55.6 °F 66% 30.18 in 10.0 mi ESE 4.6 mph - N/A   Clear
9:15 PM 65.3 °F 55.6 °F 71% 30.17 in 10.0 mi SSE 3.5 mph - N/A   Clear
9:35 PM 64.6 °F 55.0 °F 71% 30.16 in 10.0 mi SE 4.6 mph - N/A   Clear
9:55 PM 63.1 °F 54.5 °F 73% 30.16 in 10.0 mi Calm Calm - N/A   Clear
10:15 PM 62.6 °F 54.1 °F 74% 30.15 in 10.0 mi SSE 3.5 mph - N/A   Clear
10:35 PM 62.8 °F 54.3 °F 74% 30.15 in 10.0 mi Calm Calm - N/A   Clear
10:55 PM 62.6 °F 54.1 °F 74% 30.15 in 10.0 mi Calm Calm - N/A   Clear
11:35 PM 61.0 °F 53.2 °F 76% 30.13 in 10.0 mi Calm Calm - N/A   Clear
11:55 PM 60.3 °F 52.7 °F 76% 30.12 in 10.0 mi SE 3.5 mph - N/A   Clear